When you browse on this site, cookies collect data to enhance your experience and personalize the content and advertising you see.
Visit our Privacy Policy to learn more. By continuing to use the site, you agree to this use of cookies and data.
  • en France
  • Liste des pays
  • À 7 jours
  • Température de l'eau
  • Carte satellitaire
  • Carte météo
  • Widgets météo
  • user-avatar
    Se connecter

    Météo par heure à Eisenstadt

    Ce jour, 22 Avril, Lundi

    Heure Température Précipitation Vent Pression Humidité
    00:00 +9°C° 0 mm 0 m/s 723 mmHg 62%
    01:00 +9°C° 0 mm 0 m/s 722 mmHg 63%
    02:00 +8°C° 0 mm 0 m/s 722 mmHg 65%
    03:00 +8°C° 0 mm 0 m/s 722 mmHg 67%
    04:00 +7°C° 0 mm 0 m/s 721 mmHg 69%
    05:00 +9°C° 0 mm 0 m/s 721 mmHg 66%
    06:00 +11°C° 0 mm 1 m/s 721 mmHg 64%
    07:00 +12°C° 0 mm 1 m/s 721 mmHg 62%
    08:00 +13°C° 0 mm 1 m/s 720 mmHg 58%
    09:00 +15°C° 0 mm 2 m/s 720 mmHg 54%
    10:00 +16°C° 0 mm 2 m/s 720 mmHg 50%
    11:00 +17°C° 0 mm 2 m/s 719 mmHg 49%
    12:00 +18°C° 0 mm 2 m/s 719 mmHg 47%
    13:00 +19°C° 0 mm 2 m/s 719 mmHg 46%
    14:00 +19°C° 0 mm 2 m/s 718 mmHg 46%
    15:00 +19°C° 0 mm 2 m/s 718 mmHg 46%
    16:00 +19°C° 0 mm 2 m/s 718 mmHg 46%
    17:00 +17°C° 0 mm 2 m/s 718 mmHg 52%
    18:00 +16°C° 0 mm 2 m/s 717 mmHg 58%
    19:00 +14°C° 0 mm 2 m/s 717 mmHg 64%
    20:00 +13°C° 0 mm 2 m/s 717 mmHg 68%
    21:00 +13°C° 0 mm 2 m/s 717 mmHg 71%
    22:00 +12°C° 0 mm 2 m/s 718 mmHg 75%
    23:00 +12°C° 0 mm 2 m/s 718 mmHg 76%

    Demain, 23 Avril, Mardi

    Heure Température Précipitation Vent Pression Humidité
    00:00 +12°C° 0 mm 2 m/s 717 mmHg 76%
    01:00 +10°C° 0 mm 2 m/s 717 mmHg 77%
    02:00 +10°C° 0 mm 2 m/s 717 mmHg 80%
    03:00 +9°C° 0 mm 2 m/s 717 mmHg 82%
    04:00 +9°C° 0 mm 2 m/s 716 mmHg 84%
    05:00 +9°C° 0.2 mm 2 m/s 716 mmHg 86%
    06:00 +9°C° 0.2 mm 2 m/s 716 mmHg 88%
    07:00 +9°C° 0.2 mm 3 m/s 716 mmHg 90%
    08:00 +9°C° 1 mm 3 m/s 716 mmHg 92%
    09:00 +9°C° 1 mm 3 m/s 717 mmHg 93%
    10:00 +9°C° 1 mm 3 m/s 717 mmHg 95%
    11:00 +9°C° 0.7 mm 3 m/s 716 mmHg 94%
    12:00 +8°C° 0.7 mm 4 m/s 716 mmHg 94%
    13:00 +8°C° 0.7 mm 4 m/s 716 mmHg 94%
    14:00 +9°C° 0.6 mm 3 m/s 716 mmHg 94%
    15:00 +10°C° 0.6 mm 2 m/s 716 mmHg 95%
    16:00 +11°C° 0.6 mm 1 m/s 716 mmHg 95%
    17:00 +11°C° 0.7 mm 1 m/s 716 mmHg 95%
    18:00 +12°C° 0.7 mm 2 m/s 716 mmHg 96%
    19:00 +12°C° 0.7 mm 2 m/s 716 mmHg 96%
    20:00 +11°C° 0.2 mm 3 m/s 716 mmHg 96%
    21:00 +11°C° 0.2 mm 3 m/s 716 mmHg 96%
    22:00 +12°C° 0.2 mm 4 m/s 717 mmHg 96%
    23:00 +11°C° 0 mm 4 m/s 717 mmHg 96%

    Après-demain, 24 Avril, Mercredi

    Heure Température Précipitation Vent Pression Humidité
    00:00 +11°C° 0 mm 4 m/s 717 mmHg 96%
    01:00 +11°C° 0 mm 4 m/s 717 mmHg 97%
    02:00 +11°C° 0 mm 4 m/s 717 mmHg 96%
    03:00 +11°C° 0 mm 4 m/s 717 mmHg 96%
    04:00 +11°C° 0 mm 4 m/s 718 mmHg 96%
    05:00 +10°C° 0 mm 5 m/s 718 mmHg 94%
    06:00 +12°C° 0 mm 5 m/s 718 mmHg 92%
    07:00 +12°C° 0 mm 5 m/s 719 mmHg 90%
    08:00 +14°C° 0 mm 6 m/s 719 mmHg 83%
    09:00 +15°C° 0 mm 6 m/s 719 mmHg 77%
    10:00 +17°C° 0 mm 7 m/s 720 mmHg 71%
    11:00 +18°C° 0 mm 7 m/s 720 mmHg 65%
    12:00 +20°C° 0 mm 7 m/s 720 mmHg 59%
    13:00 +21°C° 0 mm 8 m/s 720 mmHg 52%
    14:00 +21°C° 0 mm 7 m/s 720 mmHg 52%
    15:00 +21°C° 0 mm 7 m/s 720 mmHg 52%
    16:00 +21°C° 0 mm 7 m/s 720 mmHg 52%
    17:00 +20°C° 0 mm 6 m/s 720 mmHg 58%
    18:00 +17°C° 0 mm 6 m/s 720 mmHg 64%
    19:00 +16°C° 0 mm 5 m/s 720 mmHg 70%
    20:00 +15°C° 0 mm 5 m/s 720 mmHg 73%
    21:00 +14°C° 0 mm 5 m/s 720 mmHg 75%
    22:00 +13°C° 0 mm 5 m/s 721 mmHg 77%
    23:00 +13°C° 0 mm 5 m/s 721 mmHg 79%

    25 Avril, Jeudi

    Heure Température Précipitation Vent Pression Humidité
    00:00 +12°C° 0 mm 5 m/s 720 mmHg 80%
    01:00 +12°C° 0 mm 5 m/s 720 mmHg 81%
    02:00 +10°C° 0 mm 5 m/s 720 mmHg 82%
    03:00 +10°C° 0 mm 5 m/s 720 mmHg 82%
    04:00 +10°C° 0 mm 5 m/s 720 mmHg 82%
    05:00 +12°C° 0 mm 5 m/s 720 mmHg 78%
    06:00 +13°C° 0 mm 5 m/s 720 mmHg 74%
    07:00 +14°C° 0 mm 5 m/s 721 mmHg 69%
    08:00 +16°C° 0 mm 6 m/s 721 mmHg 63%
    09:00 +19°C° 0 mm 6 m/s 721 mmHg 58%
    10:00 +21°C° 0 mm 7 m/s 722 mmHg 52%
    11:00 +22°C° 0 mm 7 m/s 722 mmHg 49%
    12:00 +23°C° 0 mm 7 m/s 722 mmHg 47%
    13:00 +24°C° 0 mm 8 m/s 722 mmHg 44%
    14:00 +24°C° 0 mm 7 m/s 721 mmHg 45%
    15:00 +24°C° 0 mm 7 m/s 721 mmHg 46%
    16:00 +24°C° 0 mm 7 m/s 721 mmHg 47%
    17:00 +22°C° 0 mm 6 m/s 720 mmHg 53%
    18:00 +20°C° 0 mm 6 m/s 720 mmHg 59%
    19:00 +19°C° 0 mm 5 m/s 720 mmHg 65%
    20:00 +17°C° 0 mm 5 m/s 720 mmHg 67%
    21:00 +16°C° 0 mm 5 m/s 720 mmHg 69%
    22:00 +17°C° 0 mm 4 m/s 720 mmHg 72%
    23:00 +15°C° 0 mm 4 m/s 720 mmHg 72%

    26 Avril, Vendredi

    Heure Température Précipitation Vent Pression Humidité
    00:00 +14°C° 0 mm 4 m/s 720 mmHg 73%
    01:00 +14°C° 0 mm 4 m/s 720 mmHg 74%
    02:00 +13°C° 0 mm 4 m/s 719 mmHg 76%
    03:00 +13°C° 0 mm 4 m/s 719 mmHg 77%
    04:00 +12°C° 0 mm 4 m/s 719 mmHg 79%
    05:00 +13°C° 0 mm 4 m/s 719 mmHg 78%
    06:00 +14°C° 0 mm 4 m/s 719 mmHg 76%
    07:00 +14°C° 0 mm 4 m/s 719 mmHg 75%
    08:00 +17°C° 0 mm 4 m/s 719 mmHg 70%
    09:00 +17°C° 0 mm 5 m/s 719 mmHg 64%
    10:00 +20°C° 0 mm 5 m/s 719 mmHg 58%
    11:00 +21°C° 0 mm 5 m/s 719 mmHg 54%
    12:00 +23°C° 0 mm 5 m/s 719 mmHg 49%
    13:00 +25°C° 0 mm 5 m/s 719 mmHg 44%
    14:00 +23°C° 0.1 mm 4 m/s 719 mmHg 49%
    15:00 +21°C° 0.1 mm 3 m/s 720 mmHg 54%
    16:00 +20°C° 0.1 mm 3 m/s 720 mmHg 60%
    17:00 +17°C° 0.2 mm 3 m/s 720 mmHg 65%
    18:00 +14°C° 0.2 mm 4 m/s 720 mmHg 70%
    19:00 +10°C° 0.2 mm 5 m/s 721 mmHg 76%
    20:00 +9°C° 0 mm 5 m/s 721 mmHg 73%
    21:00 +9°C° 0 mm 6 m/s 722 mmHg 70%
    22:00 +8°C° 0 mm 6 m/s 723 mmHg 68%
    23:00 +8°C° 0 mm 6 m/s 723 mmHg 67%

    27 Avril, Samedi

    Heure Température Précipitation Vent Pression Humidité
    00:00 +8°C° 0 mm 6 m/s 723 mmHg 66%
    01:00 +8°C° 0 mm 6 m/s 724 mmHg 66%
    02:00 +8°C° 0 mm 6 m/s 724 mmHg 66%
    03:00 +8°C° 0 mm 6 m/s 724 mmHg 66%
    04:00 +8°C° 0 mm 6 m/s 724 mmHg 66%
    05:00 +8°C° 0 mm 7 m/s 724 mmHg 66%
    06:00 +9°C° 0 mm 7 m/s 724 mmHg 66%
    07:00 +9°C° 0 mm 8 m/s 724 mmHg 65%
    08:00 +10°C° 0 mm 9 m/s 725 mmHg 62%
    09:00 +11°C° 0 mm 9 m/s 725 mmHg 59%
    10:00 +12°C° 0 mm 10 m/s 725 mmHg 56%
    11:00 +12°C° 0 mm 10 m/s 725 mmHg 55%
    12:00 +13°C° 0 mm 10 m/s 725 mmHg 54%
    13:00 +13°C° 0 mm 10 m/s 725 mmHg 53%
    14:00 +13°C° 0 mm 10 m/s 725 mmHg 54%
    15:00 +13°C° 0 mm 9 m/s 725 mmHg 55%
    16:00 +13°C° 0 mm 9 m/s 725 mmHg 56%
    17:00 +12°C° 0 mm 8 m/s 725 mmHg 59%
    18:00 +12°C° 0 mm 7 m/s 726 mmHg 62%
    19:00 +11°C° 0 mm 6 m/s 726 mmHg 65%
    20:00 +10°C° 0 mm 6 m/s 726 mmHg 66%
    21:00 +10°C° 0 mm 5 m/s 727 mmHg 66%
    22:00 +10°C° 0 mm 5 m/s 727 mmHg 66%
    23:00 +10°C° 0 mm 5 m/s 728 mmHg 66%
    Voir plus